Home   Weather   Himeji   Past weeks

Flag for Japan Past Weather in Himeji, Japan — Yesterday and Last 2 Weeks

Now
79 °F

Passing clouds.


Feels Like: 80 °F
Forecast: 57 / 74 °F
Wind: 10 mph from Southwest

Location: Osaka International Airport

Current Time: May 26, 2017 at 12:52:53 pm

Latest Report: May 26, 2017 at 12:00 pm


Visibility: N/A

Pressure: 29.56 "Hg

Humidity: 51%

Dew Point: 59 °F

Location of HimejiLocation

Past Weather in Himeji — Graph

°F

Himeji Temperature Yesterday

Maximum temperature yesterday: 77 °F (at 4:00 pm)
Minimum temperature yesterday: 66 °F (at 5:00 am)
Average temperature yesterday: 70 °F

High & Low Weather Summary for the Past Weeks

 TemperatureHumidityPressure
High86 °F (May 21, 2:00 pm)100% (May 13, 6:00 am)30.07 "Hg (May 13, 6:00 am)
Low55 °F (May 17, 5:00 am)15% (May 19, 4:00 pm)29.59 "Hg (May 26, 5:00 am)
Average72 °F54%29.84 "Hg
* Reported May 11 11:00 am — May 26 11:00 am, Himeji. Weather by CustomWeather, © 2017

Note: Actual official high and low records may vary slightly from our data, if they occured in-between our weather recording intervals... More about our weather records

Advertising

Himeji Weather History for the Previous 24 Hours

Scroll right to see more
 ConditionsComfort  
Time TempWeatherWind HumidityBarometerVisibility
11:00 am
Fri, May 26
79 °FPassing clouds.8 mph54%29.59 "HgN/A
10:00 am81 °FScattered clouds.2 mph51%29.59 "HgN/A
9:00 am73 °FPartly sunny.2 mph65%29.59 "HgN/A
8:00 am73 °FBroken clouds.5 mph65%29.59 "HgN/A
7:00 am70 °FPartly sunny.3 mph73%29.59 "HgN/A
6:00 am70 °FPartly sunny.5 mph78%29.59 "HgN/A
5:00 am70 °FPartly sunny.5 mph78%29.59 "HgN/A
8:00 pm
Thu, May 25
72 °FPartly cloudy.2 mph69%29.65 "HgN/A
7:00 pm72 °FBroken clouds.3 mph69%29.65 "HgN/A
6:00 pm73 °FPartly sunny.5 mph65%29.65 "HgN/A
5:00 pm75 °FBroken clouds.6 mph61%29.62 "HgN/A
4:00 pm77 °FBroken clouds.3 mph57%29.62 "HgN/A
3:00 pm73 °FBroken clouds.5 mph61%29.65 "HgN/A
2:00 pm75 °FBroken clouds.6 mph61%29.65 "HgN/A
1:00 pm73 °FSprinkles. Broken clouds.2 mph65%29.68 "HgN/A
12:00 pm72 °FBroken clouds.2 mph69%29.68 "HgN/A
Weather by CustomWeather, © 2017

See weather overviewHow to use our weather pages